Location: Grandview
(34.8900°N, 117.1058°W)
Time: 02:25:15
(UTC-07:00)

CUTE 1.7 + AOD 2 - Visible Passes

Search period start: 25 March 2019 00:00
Search period end: 04 April 2019 00:00
Orbit: 594 x 612 km, 97.5° (Epoch: 25 March)

Date Brightness Start Highest point End Pass type
(mag) Time Alt. Az. Time Alt. Az. Time Alt. Az.
25 Mar ? 05:39:48 10° ENE 05:41:36 12° E 05:43:22 10° ESE visible
26 Mar ? 05:50:58 10° NE 05:53:48 17° E 05:56:38 10° SE visible
27 Mar ? 06:02:33 10° NE 06:06:00 24° E 06:09:25 10° SSE visible
28 Mar ? 06:14:21 10° NNE 06:18:10 34° E 06:21:58 10° SSE visible
02 Apr ? 05:40:44 10° ENE 05:42:46 13° E 05:44:47 10° ESE visible
03 Apr ? 05:52:01 10° NE 05:54:58 19° E 05:57:54 10° SE visible
